Limon, CO

8:03 PM MST on December 05, 2016 (GMT -0700)
Limon Municipal

Weather History for KLIC - October, 2012

Change the Weather History Date:

Monday, October 22, 2012

  Actual Average Record
Temperature  
Mean Temperature 47 °F -  
Max Temperature 68 °F - 84 °F (2003)
Min Temperature 26 °F - 15 °F (1996)
Degree Days  
Heating Degree Days 18    
Month to date heating degree days 411  
Cooling Degree Days 0    
Month to date cooling degree days 0  
Moisture  
Dew Point 32 °F    
Average Humidity 66    
Maximum Humidity 92    
Minimum Humidity 31    
Precipitation  
Precipitation 0.00 in - 0.84 in (2015)
Month to date precipitation 0.29  
Year to date precipitation 8.94  
Sea Level Pressure  
Sea Level Pressure 29.80 in    
Wind  
Wind Speed 5 mph (SE)    
Max Wind Speed 25 mph    
Max Gust Speed 32 mph    
Visibility 10 miles    
Events      
T = Trace of Precipitation, MM = Missing Value Source: NWS Daily Summary

Daily Weather History Graph

Daily Weather History Graph

Search for Another Location

Airport or City:

Trip Planner

Search our weather history database for the weather conditions in past years. The results will help you decide how hot, cold, wet, or windy it might be!

Date:

Astronomy

Oct. 22, 2012 Rise Set
Actual Time 7:12 AM MDT 6:05 PM MDT
Civil Twilight 6:44 AM MDT 6:32 PM MDT
Nautical Twilight 6:13 AM MDT 7:03 PM MDT
Astronomical Twilight 5:42 AM MDT 7:34 PM MDT
Moon 2:12 PM MDT (10/22) 12:04 AM MDT (10/22)
Length of Visible Light 11h 47m
Length of Day
10h 52m
First Quarter, 57% of the Moon is Illuminated
Oct 22
First Quarter
Oct 29
Full
Nov 6
Last Quarter
Nov 13
New
Nov 20
First Quarter

Hourly Weather History & Observations

Time (MDT) Temp. Windchill Dew Point Humidity Pressure Visibility Wind Dir Wind Speed Gust Speed Precip Events Conditions
12:55 AM 33.1 °F 30.0 °F 28.9 °F 85% 29.82 in 10.0 mi NNW 3.5 mph - N/A   Clear
1:55 AM 35.1 °F 32.2 °F 30.0 °F 82% 29.80 in 10.0 mi West 3.5 mph - N/A   Clear
2:55 AM 30.0 °F - 28.0 °F 92% 29.83 in 10.0 mi Calm Calm - N/A   Clear
3:55 AM 30.9 °F - 28.9 °F 92% 29.82 in 10.0 mi Calm Calm - N/A   Clear
4:55 AM 28.0 °F 24.2 °F 26.1 °F 92% 29.86 in 10.0 mi North 3.5 mph - N/A   Clear
5:55 AM 28.0 °F 20.8 °F 26.1 °F 92% 29.88 in 10.0 mi NNW 6.9 mph - N/A   Clear
6:55 AM 26.1 °F - 24.1 °F 92% 29.90 in 10.0 mi Calm Calm - N/A   Clear
7:55 AM 30.0 °F 26.5 °F 27.0 °F 88% 29.91 in 10.0 mi North 3.5 mph - N/A   Clear
8:55 AM 45.0 °F - 35.1 °F 68% 29.88 in 10.0 mi Calm Calm - N/A   Clear
9:55 AM 53.1 °F - 36.0 °F 52% 29.88 in 10.0 mi Calm Calm - N/A   Clear
10:55 AM 59.0 °F - 35.1 °F 41% 29.84 in 10.0 mi SSE 6.9 mph - N/A   Clear
11:55 AM 61.0 °F - 35.1 °F 38% 29.83 in 10.0 mi SSE 11.5 mph - N/A   Clear
12:55 PM 64.9 °F - 36.0 °F 34% 29.79 in 10.0 mi SSE 10.4 mph - N/A   Clear
1:55 PM 66.9 °F - 35.1 °F 31% 29.75 in 10.0 mi SE 15.0 mph - N/A   Clear
2:55 PM 66.9 °F - 36.0 °F 32% 29.73 in 10.0 mi SSE 18.4 mph 27.6 mph N/A   Clear
4:55 PM 64.0 °F - 35.1 °F 34% 29.72 in 10.0 mi SSE 23.0 mph 27.6 mph N/A   Clear
5:55 PM 60.1 °F - 36.0 °F 41% 29.74 in 10.0 mi SSE 15.0 mph - N/A   Clear
6:55 PM 52.0 °F - 36.0 °F 54% 29.79 in 10.0 mi East 10.4 mph - N/A   Clear
7:55 PM 48.0 °F - 35.1 °F 61% 29.80 in 10.0 mi SE 8.1 mph - N/A   Clear
8:55 PM 46.0 °F 41.4 °F 35.1 °F 66% 29.74 in 10.0 mi SE 9.2 mph - N/A   Clear
9:55 PM 39.9 °F 36.7 °F 34.0 °F 79% 29.73 in 10.0 mi East 4.6 mph - N/A   Clear
10:55 PM 39.0 °F 36.8 °F 33.1 °F 79% 29.71 in 10.0 mi SE 3.5 mph - N/A   Clear
11:55 PM 35.1 °F - 33.1 °F 92% 29.70 in 10.0 mi Calm Calm - N/A   Clear